Location: ??? ????
(38.0580°N, 23.1536°E)
Time: 06:12:30
(UTC+00:00)

SKYMED 2 - Pass Details

Date: 13 December 2025
Orbit: 622 x 623 km, 97.9° (Epoch: 20 January)

Event Time Altitude Azimuth Distance (km) Brightness Sun altitude
Exits shadow 15:56:34 - 26° (NNE) 2,481 6.2 -9.4°
Reaches altitude 10° 15:57:51 10° 32° (NNE) 1,998 5.7 -9.6°
Maximum altitude 16:01:48 34° 97° (E) 1,032 4.3 -10.4°
Drops below altitude 10° 16:05:44 10° 163° (SSE) 1,983 6.2 -11.1°
Sets 16:08:04 0° 173° (S) 2,884 7.2 -11.5°
